{"data":{"norad_id":37216,"epoch":"2026-05-25T05:16:57.997344Z","epoch_age_seconds":49353,"freshness":"FRESH","line1":"1 37216U 10060A   26145.22011571  .00000499  00000+0  69227-4 0  9994","line2":"2 37216  97.8892 329.1531 0001414  86.5686 273.5689 14.82162744841166","mean_motion":14.82162744,"eccentricity":0.0001414,"inclination_deg":97.8892,"raan_deg":329.1531,"arg_perigee_deg":86.5686,"mean_anomaly_deg":273.5689,"bstar":6.9227e-5,"rev_number":84116,"period_min":97.155322911018,"perigee_km":621.5158146557,"apogee_km":623.49559641282,"semimajor_km":7000.6427055343,"source":"CELESTRAK","updated_at":"2026-05-25T13:38:12.778601Z"}}